Погода Абрамовский Маяк

Погода Абрамовский Маяк : погода сейчас, прогноз погоды и архив. Всё, что Вы хотите узнать о погоде Абрамовский Маяк!

Поиск расширенной информации на нашем сайте:

Другие новости

Новости СМИ2

Главная страница сайта

Новости сайта

03.07.2017

Напоминаем, что на нашем специализированном сайте Метеоцентр.Азия вы можете получить высокодетализированные автоматические прогнозы погоды по пунктам России, СНГ и мира в авиационном формате (включающие направление и скорость ветра, видимость, явления погоды, количество и форму облачности, нижнюю и верхнюю границу облачности).

Рекомендуем: Подробности абузоустойчивый хостинг на сайте.

Погода Абрамовский Маяк - сегодня

Время (UTC), дата Ветер
(°,м/с) 
Видим.   Явления Облачность Т
(°С)
Тd
(°С)
f(%) Тe
(°С)
Pmin
(гПа)
dP
(гПа)
Po
(мм)
O2
(г/м3)
Тmin Tmax R s Состояние
почвы
15 18.07.18 100 (В) 20000 м    ясно 
+18.5 +12.2 67 +24  1023.1  -0.5  765  287    +19.9       
18 18.07.18 030 (СВ) 20000 м    ясно 
+16.2 +10.1 67 +18  1023.2  0.1  765  289           
21 18.07.18 070 (В) 20000 м    1/0 верхняя 
[Ci fib]
+14.7 +12.4 86 +20  1023.4  0.2  766  290           
00 19.07.18 070 (В) 20000 м    1/0 верхняя 
[Ci fib]
+14.4 +13.1 92 +20  1024  0.6  766  291           
06 19.07.18 060 (СВ) 20000 м    ясно 
+14.1 +12.1 88 +19  1024.7  0.3  767  291           
09 19.07.18 050 (СВ) 20000 м    ясно 
+18.4 +14.2 77 +26  1024.2  -0.5  766  286           
12 19.07.18 030 (СВ) 20000 м    1/0 верхняя 
[Ci fib]
+18.5 +13.9 75 +25  1024  -0.2  766  286           
18 19.07.18 070 (В) 20000 м    1/0 верхняя 
[Ci fib]
+15.9 +13.4 85 +22  1023.1  -0.3  765  289           
21 19.07.18 140 (ЮВ) 20000 м    3/0 верхняя 
[Ci fib]
+15.3 +13.8 91 +22  1023.5  0.4  766  289           
00 20.07.18 090 (В) 20000 м    3/0 верхняя 
[Ci fib]
+16.2 +14.9 92 +25  1023.9  0.4  766  288           
06 20.07.18 100 (В) 20000 м    1/0 верхняя 
[Ci fib]
+18.8 +14.9 78 +27  1023.8  -0.4  766  286           
09 20.07.18 100 (В) 20000 м    3/0 верхняя 
[Ci fib]
+20.4 +15.2 72 +29  1023.3  -0.4  766  284           
12 20.07.18 060 (СВ) 20000 м    3/0 верхняя 
[Ci fib]
+20.4 +15.5 73 +29  1021.9  -1.4  765  283           
18 20.07.18 120 (ЮВ) 20000 м    3/0 верхняя 
[Ci fib]
+20.5 +14.6 69 +28  1020.3  -0.4  763  283           
21 20.07.18 130 (ЮВ) 20000 м    3/0 верхняя 
[Ci fib]
+19.1 +15.4 79 +28  1020.3  -0.1  763  284           
00 21.07.18 150 (ЮВ) 20000 м    3/0 верхняя 
[Ci fib]
+16.5 +13.1 80 +22  1020.1  763  287           
06 21.07.18 130 (ЮВ) 20000 м    ясно 
+24 +16.1 61 +34  1019.2  -0.7  763  279           
09 21.07.18 160 (Ю) 6{11}  20000 м    3/3 300 м 
[Cu hum]
+27.5 +13.3 42 +33  1018.7  -0.5  762  276           
12 21.07.18 110 (В) 4{10}  20000 м    3/3 300 м 
[Cu hum]
+24.3 +16.3 61 +35  1017.7  -1  761  278           
15 21.07.18 120 (ЮВ) 20000 м    ясно 
+23.7 +13.9 54 +30  1016.7  -1  761  279    +27.9       
18 21.07.18 150 (ЮВ) 20000 м    3/0 средняя 
[Ac trans]
+22.1 +16 68 +32  1016.3  -0.4  760  280           
21 21.07.18 170 (Ю) 20000 м    5/0 средняя 
[Ac cast]
+20.7 +15.1 70 +29  1016.2  -0.1  760  282           
00 22.07.18 180 (Ю) 20000 м    6/0 средняя 
[Ac cast]
+18.9 +13.8 72 +25  1016.7  0.4  761  284           
12 22.07.18 180 (Ю) 6{13}  20000 м    5/5 300 м 
[Cu hum]
+27.5 +14.6 45 +35  1014.7  -0.8  759  275           
18 22.07.18 170 (Ю) 20000 м    1/1 300 м 
[Sc diur, vesp]
+22.2 +15.4 65 +31  1014.3  0.2  759  280           
Время (UTC), дата Ветер
(°,м/с) 
Видим.   Явления Облачность Т
(°С)
Тd
(°С)
f(%) Тe
(°С)
Pmin
(гПа)
dP
(гПа)
Po
(мм)
O2
(г/м3)
Тmin Tmax R s Состояние
почвы

Для получения пояснительной информации подведите курсор к названию столбца.

ПОГОДА Абрамовский Маяк - архив

Всё, что Вы хотите узнать о погоде Абрамовский Маяк - удобно и подробно!

Выберите нужную дату (начиная с 1 января 2015* года) и нажмите кнопку "Найти".
Будут отображены архивные сводки погоды по пункту Абрамовский Маяк, начиная с указанной даты.


Отображать данные в формате CSV (для использования в таблицах Excel)


Внимание! Наш архив погоды предназначен исключительно для личного некоммерческого использования в познавательных целях. Если Вам необходимы официальные справки о состоянии погоды (для производственных, юридических, коммерческих и т.п. целей), обращайтесь в органы Росгидромета.

*Примечание: данная дата относится к архиву по метеостанциям СССР (Россия, СНГ, Балтия).
Архив по метеостанциям Зарубежной Европы и Азии (кроме Китая) хранится 10 дней, по другим регионам земного шара (Китай, Африка, Америка, Австралия, Океания) - 1 день.

Абрамовский Маяк - район местоположения метеостанции


Название, широта, долгота, высота метеостанции:
Абрамовский Маяк 66.4°ш. 43.2°д. 21 м над ур. моря [Российская Федерация]

Дополнительная информация

В oтличие oт бoльшинства пoгoдных сайтoв мы публикуем пoдрoбную метеoинфoрмацию в детальнoм прoфессиoнальнoм фoрмате.

Характеристики температуры и влажнoсти вoздуха измеряются на высoте 2 м в тени вдали oт зданий и деревьев.
Скoрoсть ветра измеряется на высoте 10 м (на урoвне рoста челoвека скoрoсть ветра ниже в 1.5-2 раза). Если метеoстанция нахoдится в гoрoде или в лесу, тo скoрoсть ветра занижена на 2-4 м/с пo сравнению с oткрытым местoм. Скoрoсть ветра над акватoриями крупных рек и oзёр, а также на вершинах хoлмoв на 2-5 м/с выше, чем в oбычных услoвиях.
Атмoсфернoе давление в разных тoчках местнoсти мoжет значительнo oтличаться oт давления на метеoстанции, в зависимoсти oт услoвий рельефа (при пoдъёме на 10 м давление пoнижается примернo на 1 мм рт.ст.).